Weather History for Mansfield, OH

Change the Weather History Date:

Tuesday, February 11, 2014

  Actual Average Record
Temperature  
Mean Temperature 4 °F 28 °F  
Max Temperature 12 °F 35 °F 68 °F (1999)
Min Temperature -5 °F 20 °F -5 °F (1979)
Degree Days  
Heating Degree Days 61 38  
Month to date heating degree days 531 422  
Since 1 July heating degree days 4353 4022  
Cooling Degree Days 0 0  
Month to date cooling degree days 0 0  
Year to date cooling degree days 0 0  
Moisture  
Dew Point -1 °F    
Average Humidity 81    
Maximum Humidity 95    
Minimum Humidity 66    
Precipitation  
Precipitation 0.00 in 0.08 in 1.20 in (2009)
Month to date precipitation 1.23 0.93  
Year to date precipitation 3.25 3.80  
Snow  
Snow 0.00 in 0.30 in - ()
Month to date snowfall 10.8 4.4  
Since 1 July snowfall 47.3 30.9  
Snow Depth 4.00 in    
Sea Level Pressure  
Sea Level Pressure 30.46 in    
Wind  
Wind Speed 4 mph (NW)    
Max Wind Speed 10 mph    
Max Gust Speed 12 mph    
Visibility 8 miles    
Events      
T = Trace of Precipitation, MM = Missing Value Source: NWS Daily Summary

Daily Weather History Graph

Daily Weather History Graph

Search for Another Location

Airport:

Trip Planner

Search our weather history database for the weather conditions in past years. The results will help you decide how hot, cold, wet, or windy it might be!

Date:

Astronomy

Feb. 11, 2014 Rise Set
Actual Time 7:29 AM EST 5:59 PM EST
Civil Twilight 7:00 AM EST 6:28 PM EST
Nautical Twilight 6:28 AM EST 7:00 PM EST
Astronomical Twilight 5:56 AM EST 7:32 PM EST
Moon 3:18 PM EST (2/11) 5:05 AM EST (2/11)
Length of Visible Light 11h 27m
Length of Day
10h 30m
Waxing Gibbous, 90% of the Moon is Illuminated
Feb 11
Waxing Gibbous
Feb 14
Full
Feb 22
Last Quarter
Mar 1
New
Mar 8
First Quarter

Hourly Weather History & Observations

Time (EST) Temp. Windchill Dew Point Humidity Pressure Visibility Wind Dir Wind Speed Gust Speed Precip Events Conditions
12:52 AM 3.0 °F -6.4 °F -0.0 °F 87% 30.39 in 5.0 mi West 4.6 mph - N/A   Clear
1:52 AM 1.9 °F -7.6 °F -0.9 °F 88% 30.40 in 6.0 mi West 4.6 mph - N/A   Clear
2:52 AM -0.0 °F -11.6 °F -2.9 °F 88% 30.41 in 5.0 mi WSW 5.8 mph - N/A   Clear
3:52 AM -0.0 °F -7.9 °F -2.0 °F 91% 30.40 in 6.0 mi West 3.5 mph - N/A   Clear
4:52 AM -0.0 °F -7.9 °F -2.0 °F 91% 30.40 in 7.0 mi WNW 3.5 mph - N/A   Clear
5:52 AM -2.0 °F -10.1 °F -4.0 °F 91% 30.43 in 6.0 mi WSW 3.5 mph - N/A   Clear
6:52 AM -0.9 °F -8.9 °F -4.0 °F 87% 30.45 in 6.0 mi West 3.5 mph - N/A   Clear
7:43 AM -0.4 °F - -2.2 °F 92% 30.38 in 5.0 mi Calm Calm - N/A   Mostly Cloudy
7:52 AM -0.9 °F - -5.1 °F 83% 30.48 in 5.0 mi Calm Calm - N/A   Mostly Cloudy
8:52 AM 1.9 °F -7.6 °F -2.9 °F 80% 30.49 in 6.0 mi NW 4.6 mph - N/A   Haze
9:52 AM 6.1 °F -4.3 °F 1.0 °F 80% 30.50 in 8.0 mi NW 5.8 mph - N/A   Overcast
10:52 AM 7.0 °F -4.5 °F 1.9 °F 80% 30.50 in 8.0 mi NNW 6.9 mph - N/A   Overcast
11:44 AM 8.6 °F -4.7 °F 1.4 °F 73% 30.41 in 10.0 mi NNW 9.2 mph - N/A   Scattered Clouds
11:52 AM 8.1 °F -5.3 °F 1.0 °F 73% 30.51 in 10.0 mi NNW 9.2 mph - N/A   Partly Cloudy
12:52 PM 10.0 °F -0.9 °F 1.0 °F 67% 30.49 in 10.0 mi NNW 6.9 mph - N/A   Clear
1:52 PM 10.9 °F 1.4 °F 1.0 °F 64% 30.48 in 10.0 mi NW 5.8 mph - N/A   Clear
2:52 PM 10.9 °F 4.7 °F 1.0 °F 64% 30.48 in 10.0 mi NW 3.5 mph - N/A   Clear
3:52 PM 10.9 °F 1.4 °F 1.9 °F 67% 30.48 in 10.0 mi NW 5.8 mph - N/A   Partly Cloudy
4:52 PM 8.1 °F -3.2 °F -0.0 °F 70% 30.50 in 10.0 mi NNW 6.9 mph - N/A   Clear
5:52 PM 5.0 °F -4.1 °F -2.0 °F 73% 30.50 in 10.0 mi NNW 4.6 mph - N/A   Clear
6:52 PM 5.0 °F - -0.0 °F 80% 30.51 in 10.0 mi Calm Calm - N/A   Clear
7:52 PM 1.9 °F - -2.0 °F 83% 30.51 in 10.0 mi Calm Calm - N/A   Clear
8:52 PM 1.0 °F - -2.9 °F 83% 30.51 in 10.0 mi Calm Calm - N/A   Clear
9:52 PM 1.9 °F - -2.9 °F 80% 30.49 in 10.0 mi Calm Calm - N/A   Clear
10:52 PM -0.0 °F -14.2 °F -2.0 °F 91% 30.47 in 7.0 mi ENE 8.1 mph - N/A   Clear
11:52 PM 1.9 °F -5.6 °F 1.0 °F 96% 30.48 in 7.0 mi East 3.5 mph - N/A   Clear